Location: Ar Ranvel
(48.3000°N, 4.8833°W)
Time: 11:28:28
(UTC+00:00)

COSMOS 2251 DEB - Pass Details

Date: 03 February 2022
Orbit: 754 x 1085 km, 74.1° (Epoch: 26 May)

Event Time Altitude Azimuth Distance (km) Brightness Sun altitude
Rises 20:12:52 0° 327° (NNW) 3,863 ? -28.6°
Reaches altitude 10° 20:16:05 10° 313° (NW) 2,927 ? -29.1°
Maximum altitude 20:21:06 22° 267° (W) 2,178 ? -29.9°
Drops below altitude 10° 20:26:06 10° 220° (SW) 2,917 ? -30.8°
Sets 20:29:19 0° 205° (SSW) 3,846 ? -31.3°
